[[{"header":{"parameterUnit":"m.s-1","parameterCategory":1,"la1":30.2991,"la2":30.254,"lo1":-89.0895,"lo2":-89.0444,"dy":0.0017,"dx":0.0017,"nx":28,"ny":28,"refTime":"2023-10-17T03:00:00:Z","depth":0,"parameterNumber":2,"parameterNumberName":"U-component_of_WINDS"},"data":[0,0,0,0,0,0,0,0,0,0,0,0,0,0,0,0,0,0,0,0,0,0,0,0,0,0,0,0,0,0,0,0,0,0,0,0,0,0,0,0,0,0,0,0,0,0,0,0,0,0,0,0,0,0,0,0,0,0,2.4699,2.4699,0,2.467,2.467,2.467,2.4596,2.4595,2.4593,2.4592,2.4563,2.4563,2.4564,0,0,0,0,0,0,0,0,0,0,0,0,0,2.4693,2.4693,2.4699,2.4699,2.4699,2.4671,2.467,2.467,2.4597,2.4595,2.4593,2.4591,2.4562,2.4563,2.4564,0,0,0,0,0,0,0,0,0,0,0,0,0,2.4683,2.4693,2.4699,2.4659,2.4655,2.4671,2.467,2.467,2.4597,2.4595,2.4592,2.459,2.4562,2.4563,2.4564,2.4617,0,0,2.4567,2.4568,0,0,0,0,0,0,0,0,2.4684,2.4683,2.4665,2.4662,2.4657,2.4635,2.4657,2.4652,2.4598,2.4619,2.4592,2.4589,2.4589,2.4587,2.4587,2.4616,2.4615,2.4567,2.4568,2.4568,2.4569,0,0,0,0,0,0,0,2.4684,2.4684,2.4688,2.4665,2.466,2.4642,2.4638,2.4656,2.4617,2.4617,2.4611,2.4609,2.4586,2.4586,2.4586,2.4614,2.4567,2.4568,2.4569,2.4569,2.4687,2.4689,0,0,0,0,0,0,2.4691,2.4685,2.4689,2.4687,2.4665,2.4644,2.464,2.4644,2.4617,2.461,2.4611,2.4606,2.4586,2.4585,2.4584,2.4645,2.4568,2.4569,2.457,2.4684,2.4687,2.469,0,0,0,0,0,0,2.4691,2.4692,2.469,2.4685,2.4683,2.4647,2.4652,2.4645,2.4645,2.4612,2.4605,2.4618,2.4584,2.4583,2.461,2.4643,2.457,2.4571,2.4681,2.4685,2.4689,2.4767,0,0,0,0,0,0,2.4691,2.4692,2.4711,2.4686,2.4684,2.4716,2.4654,2.4646,2.4647,2.464,2.4617,2.4611,2.4582,2.4609,2.4611,2.4643,2.4572,2.4678,2.4683,2.4687,2.4761,2.4773,2.4783,0,0,0,0,0,2.4691,2.4735,2.4713,2.4714,2.4707,2.4718,2.4716,2.4681,2.465,2.4669,2.4649,2.4612,2.464,2.4612,2.4614,2.4647,2.4676,2.4682,2.4687,2.4757,2.4771,2.4783,0,0,0,0,0,0,2.4765,2.473,2.4706,2.4742,2.4734,2.4705,2.4728,2.4698,2.4698,2.4691,2.4648,2.4643,2.4676,2.4664,2.4635,2.4698,2.4652,2.4658,2.4704,2.4717,2.4728,2.473,2.4572,0,0,0,0,0,2.4786,2.4797,2.4766,2.4801,2.4798,2.4765,2.4768,2.4742,2.4731,2.4727,2.4708,2.4699,2.4706,2.4711,2.4715,2.476,2.4754,2.4784,2.4795,2.4804,2.4809,2.4833,2.4846,2.4708,2.4708,2.4708,0,0,2.4828,2.4811,2.482,2.4816,2.4806,2.4819,2.4762,2.4778,2.4787,2.4729,2.4753,2.474,2.4727,2.4764,2.4779,2.4755,2.4847,2.4811,2.4818,2.4819,2.484,2.4853,2.4865,2.4712,2.4712,2.4711,0,0,2.4912,2.49,2.4928,2.492,2.4906,2.4884,2.4891,2.4868,2.4856,2.488,2.4837,2.4848,2.486,2.4853,2.4852,2.4936,2.4902,2.4938,2.4995,2.5018,2.5029,2.5039,2.5069,2.508,2.4944,2.4945,2.4945,0,2.4967,2.4984,2.4947,2.4966,2.4966,2.4915,2.4944,2.4937,2.4926,2.4927,2.4901,2.4916,2.4903,2.4938,2.4959,2.4959,2.4966,2.494,2.5031,2.504,2.5048,2.5076,2.5088,2.4949,2.4949,2.4948,2.4948,0,2.5053,2.5066,2.5091,2.5081,2.5083,2.5108,2.5074,2.5082,2.5056,2.5037,2.5063,2.5047,2.5047,2.5054,2.5029,2.5085,2.5071,2.5038,2.4991,2.5066,2.5092,2.5103,2.4956,2.4954,2.4953,2.4951,0,0,2.518,2.5151,2.5161,2.5156,2.5138,2.5148,2.5171,2.5171,2.5179,2.5173,2.5191,2.5204,2.5174,2.5172,2.5146,2.5167,2.5235,2.5132,2.5131,2.5152,2.5297,2.5321,2.5334,2.5214,2.5215,2.5217,2.5298,0,2.526,2.5296,2.5264,2.5306,2.5318,2.5271,2.5291,2.5282,2.5265,2.5274,2.5255,2.5265,2.5225,2.5224,2.5242,2.5223,2.5264,2.5217,2.523,2.5231,2.5234,2.5348,2.5373,2.545,2.5308,2.531,2.5311,0,2.5356,2.5356,2.54,2.538,2.5384,2.5402,2.5401,2.5409,2.5399,2.5386,2.5385,2.5354,2.5375,2.533,2.5359,2.5328,2.5332,2.5324,2.5326,2.5325,2.5275,2.535,2.5474,2.5486,2.5327,2.5325,2.5324,0,2.5445,2.5456,2.5483,2.5481,2.5459,2.5473,2.5464,2.5452,2.5455,2.5455,2.5456,2.5458,2.5459,2.5462,2.5433,2.5402,2.5466,2.5418,2.5456,2.5457,2.547,2.547,2.5597,2.5474,2.5474,2.5474,2.5473,0,2.5537,2.5566,2.5523,2.554,2.5572,2.5535,2.5567,2.5554,2.5544,2.5558,2.5517,2.5532,2.5492,2.5503,2.548,2.5508,2.5509,2.5499,2.5492,2.5502,2.5504,2.5503,2.5497,2.5477,2.5476,2.5475,2.5475,0,2.5641,2.5614,2.5641,2.5618,2.5613,2.5638,2.5618,2.5634,2.5615,2.5633,2.5636,2.5606,2.5617,2.5588,2.5594,2.5579,2.562,2.5605,2.5623,2.5618,2.5657,2.5654,2.5788,2.5804,2.5672,2.5673,2.5674,0,2.5701,2.5722,2.5702,2.5709,2.5702,2.5714,2.5717,2.5682,2.5688,2.5679,2.5696,2.5703,2.5706,2.5725,2.5705,2.5709,2.5694,2.5741,2.5694,2.5704,2.5695,2.5694,2.5696,2.575,2.5752,2.5753,2.5754,0,2.581,2.5796,2.5802,2.5804,2.5809,2.5809,2.5806,2.5814,2.5777,2.5786,2.5796,2.5799,2.5806,2.5813,2.5814,2.5805,2.5774,2.5769,2.5778,2.5788,2.5798,2.5793,2.5649,2.5766,2.5765,2.5764,2.5763,2.5763,2.5893,2.591,2.5899,2.5908,2.5902,2.5901,2.5915,2.5898,2.5906,2.5909,2.5888,2.5903,2.5894,2.5892,2.5887,2.5899,2.5877,2.589,2.5893,2.5897,2.5903,2.5797,2.5899,2.5898,2.5898,2.5898,2.5897,0,2.6,2.5991,2.6,2.5997,2.6005,2.5975,2.5971,2.5979,2.5993,2.5987,2.5992,2.6005,2.6012,2.5993,2.5999,2.6012,2.5998,2.6014,2.6012,2.6011,2.5922,2.5914,2.6025,2.6025,2.6025,2.6025,2.6025,2.6025,2.6056,2.6084,2.6069,2.6094,2.6085,2.6099,2.6099,2.6099,2.6094,2.611,2.6116,2.6104,2.6093,2.6098,2.6104,2.6098,2.6102,2.6124,2.6113,2.603,2.6017,2.6005,2.5997,2.6125,2.6125,2.6201,2.6202,2.6202]},{"header":{"parameterUnit":"m.s-1","parameterCategory":1,"la1":30.2991,"la2":30.254,"lo1":-89.0895,"lo2":-89.0444,"dy":0.0017,"dx":0.0017,"nx":28,"ny":28,"refTime":"2023-10-17T03:00:00:Z","depth":0,"parameterNumber":3,"parameterNumberName":"V-component_of_WINDS"},"data":[0,0,0,0,0,0,0,0,0,0,0,0,0,0,0,0,0,0,0,0,0,0,0,0,0,0,0,0,0,0,0,0,0,0,0,0,0,0,0,0,0,0,0,0,0,0,0,0,0,0,0,0,0,0,0,0,0,0,-4.6591,-4.6592,0,-4.6688,-4.6689,-4.669,-4.6604,-4.66,-4.6597,-4.6593,-4.6688,-4.6694,-4.6699,0,0,0,0,0,0,0,0,0,0,0,0,0,-4.6326,-4.6332,-4.6591,-4.6592,-4.6593,-4.6688,-4.6689,-4.669,-4.6604,-4.66,-4.6596,-4.6592,-4.6686,-4.6693,-4.67,0,0,0,0,0,0,0,0,0,0,0,0,0,-4.6434,-4.6333,-4.659,-4.6562,-4.656,-4.6687,-4.6689,-4.6691,-4.6605,-4.66,-4.6595,-4.659,-4.6684,-4.6692,-4.6701,-4.686,0,0,-4.6727,-4.6731,0,0,0,0,0,0,0,0,-4.6428,-4.6444,-4.6565,-4.6564,-4.6562,-4.6628,-4.663,-4.6747,-4.6607,-4.6588,-4.6593,-4.6587,-4.6672,-4.6681,-4.6711,-4.6864,-4.6869,-4.6728,-4.6734,-4.6737,-4.674,0,0,0,0,0,0,0,-4.6421,-4.6439,-4.6629,-4.6567,-4.6565,-4.6542,-4.6552,-4.6652,-4.6658,-4.6589,-4.6583,-4.6596,-4.667,-4.6703,-4.6713,-4.687,-4.6728,-4.6736,-4.6741,-4.6744,-4.7158,-4.7164,0,0,0,0,0,0,-4.6417,-4.6433,-4.6626,-4.6632,-4.6481,-4.6552,-4.6562,-4.6612,-4.6657,-4.6659,-4.66,-4.6592,-4.6691,-4.6703,-4.6716,-4.6905,-4.6737,-4.6745,-4.675,-4.7153,-4.716,-4.7166,0,0,0,0,0,0,-4.6412,-4.6435,-4.6622,-4.6531,-4.6553,-4.6562,-4.6619,-4.6617,-4.6649,-4.6666,-4.6666,-4.6633,-4.6687,-4.6703,-4.6825,-4.6907,-4.6749,-4.6757,-4.7146,-4.7155,-4.7163,-4.7285,0,0,0,0,0,0,-4.6404,-4.6433,-4.6495,-4.6533,-4.6558,-4.6731,-4.6624,-4.6623,-4.6665,-4.6655,-4.6696,-4.6698,-4.6684,-4.6813,-4.6834,-4.6916,-4.6764,-4.7138,-4.715,-4.716,-4.7273,-4.7296,-4.7316,0,0,0,0,0,-4.6395,-4.6525,-4.6499,-4.6522,-4.6636,-4.6736,-4.6751,-4.6734,-4.6672,-4.6734,-4.6744,-4.6696,-4.6895,-4.6826,-4.6849,-4.6935,-4.7133,-4.7146,-4.7159,-4.7264,-4.7292,-4.7316,0,0,0,0,0,0,-4.6494,-4.6529,-4.6501,-4.6646,-4.6689,-4.6722,-4.6798,-4.6764,-4.6824,-4.6811,-4.6786,-4.6796,-4.6925,-4.6942,-4.6864,-4.7091,-4.7004,-4.7022,-4.7075,-4.7102,-4.7123,-4.7116,-4.6771,0,0,0,0,0,-4.6533,-4.6613,-4.6639,-4.6765,-4.6788,-4.679,-4.6833,-4.6816,-4.6859,-4.6876,-4.6895,-4.6937,-4.7009,-4.7056,-4.7123,-4.7275,-4.7283,-4.7346,-4.7367,-4.7385,-4.7401,-4.7482,-4.751,-4.7208,-4.7208,-4.7208,0,0,-4.6614,-4.6643,-4.6695,-4.6786,-4.6817,-4.6899,-4.6806,-4.6896,-4.6957,-4.6889,-4.7006,-4.7022,-4.7066,-4.7204,-4.7266,-4.7222,-4.7486,-4.7401,-4.7415,-4.7422,-4.7498,-4.7527,-4.7552,-4.7217,-4.7216,-4.7214,0,0,-4.6803,-4.6834,-4.6942,-4.6976,-4.7025,-4.7026,-4.7052,-4.709,-4.7098,-4.7215,-4.7166,-4.7237,-4.7361,-4.7395,-4.7429,-4.7632,-4.759,-4.7654,-4.7766,-4.7846,-4.7869,-4.789,-4.7963,-4.7989,-4.767,-4.767,-4.7671,0,-4.6897,-4.7021,-4.7002,-4.7097,-4.7138,-4.7083,-4.7192,-4.7225,-4.7293,-4.7321,-4.7272,-4.7427,-4.7453,-4.7598,-4.7648,-4.7677,-4.7706,-4.7649,-4.7868,-4.7889,-4.7908,-4.7976,-4.8004,-4.7678,-4.7677,-4.7676,-4.7676,0,-4.7134,-4.722,-4.7302,-4.7371,-4.7421,-4.7522,-4.7518,-4.757,-4.755,-4.7555,-4.7674,-4.7704,-4.7776,-4.7809,-4.7789,-4.7952,-4.7923,-4.7872,-4.7783,-4.7944,-4.8008,-4.8034,-4.7689,-4.7686,-4.7684,-4.7682,0,0,-4.7387,-4.7446,-4.7476,-4.7507,-4.7557,-4.7623,-4.7721,-4.7793,-4.7839,-4.7887,-4.7969,-4.8075,-4.8028,-4.8067,-4.805,-4.812,-4.8279,-4.8059,-4.806,-4.8099,-4.8459,-4.8498,-4.8528,-4.8252,-4.8257,-4.8261,-4.8455,0,-4.7579,-4.7752,-4.7738,-4.7901,-4.7981,-4.7929,-4.8015,-4.8055,-4.8062,-4.8129,-4.8137,-4.8213,-4.8145,-4.8168,-4.8235,-4.8245,-4.8351,-4.8231,-4.8326,-4.833,-4.8316,-4.8562,-4.8603,-4.8785,-4.848,-4.8484,-4.8487,0,-4.7825,-4.7884,-4.8056,-4.8095,-4.8128,-4.8205,-4.827,-4.8336,-4.8379,-4.8379,-4.8423,-4.8394,-4.8492,-4.8402,-4.8536,-4.8455,-4.8493,-4.8504,-4.8511,-4.8519,-4.8418,-4.8576,-4.8843,-4.887,-4.8527,-4.8523,-4.8521,0,-4.7993,-4.8115,-4.8234,-4.8262,-4.831,-4.8366,-4.8388,-4.8427,-4.8471,-4.8527,-4.8555,-4.8622,-4.8658,-4.871,-4.8699,-4.8635,-4.8836,-4.8745,-4.8838,-4.8839,-4.8882,-4.888,-4.9159,-4.8908,-4.8907,-4.8907,-4.8906,0,-4.8208,-4.8315,-4.831,-4.8383,-4.8501,-4.8484,-4.8601,-4.8616,-4.8651,-4.8725,-4.8684,-4.8754,-4.8736,-4.8805,-4.8797,-4.8909,-4.8926,-4.8928,-4.8925,-4.8932,-4.8932,-4.8956,-4.8943,-4.8914,-4.8912,-4.8911,-4.891,0,-4.8415,-4.8416,-4.8542,-4.8578,-4.859,-4.8675,-4.8705,-4.8773,-4.8778,-4.8872,-4.8893,-4.89,-4.8979,-4.8974,-4.9063,-4.9058,-4.9196,-4.9178,-4.9182,-4.9178,-4.9272,-4.9263,-4.9576,-4.9616,-4.9339,-4.9342,-4.9344,0,-4.8552,-4.8633,-4.8679,-4.8726,-4.8753,-4.883,-4.8875,-4.8861,-4.891,-4.8966,-4.9027,-4.9103,-4.9163,-4.9291,-4.9303,-4.9371,-4.9354,-4.9459,-4.9363,-4.9368,-4.9355,-4.935,-4.9358,-4.9477,-4.948,-4.9483,-4.9485,0,-4.8795,-4.8792,-4.886,-4.8929,-4.8985,-4.9038,-4.9086,-4.9127,-4.9117,-4.9174,-4.9256,-4.9302,-4.9394,-4.9469,-4.9534,-4.9555,-4.9519,-4.9515,-4.954,-4.9548,-4.9547,-4.9549,-4.9233,-4.9508,-4.9506,-4.9504,-4.9503,-4.9502,-4.8971,-4.9041,-4.9084,-4.9161,-4.9197,-4.9243,-4.9309,-4.9323,-4.9391,-4.9466,-4.9453,-4.9544,-4.9585,-4.9668,-4.9696,-4.9766,-4.9728,-4.9764,-4.9773,-4.9783,-4.9793,-4.9537,-4.9777,-4.9777,-4.9776,-4.9776,-4.9775,0,-4.9212,-4.9237,-4.9308,-4.9378,-4.9439,-4.9401,-4.9453,-4.9506,-4.9587,-4.9629,-4.9689,-4.9783,-4.9856,-4.9874,-4.9944,-4.9997,-4.9982,-5.0016,-5.0011,-5.0017,-4.9823,-4.9795,-5.0027,-5.0027,-5.0026,-5.0026,-5.0026,-5.0026,-4.9344,-4.9461,-4.9463,-4.9596,-4.962,-4.9711,-4.9744,-4.9786,-4.9819,-4.9926,-4.9988,-4.9999,-5.0032,-5.0104,-5.0169,-5.0172,-5.0199,-5.024,-5.0237,-5.0055,-5.003,-5.0006,-4.9979,-5.0246,-5.0246,-5.0424,-5.0426,-5.0427]}]]